This demonstration page uses our WeatherBlox Daily Observations layout. Learn more.

Left ArrowRight Arrow

31.84235, -102.49876

Hourly Observations for March 19, 2022

Temp ( °F °C ) Dew Point ( °F °C ) Humidity (%) Winds ( mph kmh ) Pressure ( in mb ) Visibility ( mi km ) Precip ( " mm )
12:53 am 00:53 Clear 44 6.7 19 -7.2 37 37 E 3 6 30.10 1019 10 16 0.00 0.00
1:53 am 01:53 Clear 44 6.7 20 -6.7 38 38 Calm 30.11 1020 10 16 0.00 0.00
2:53 am 02:53 Clear 45 7.2 22 -5.6 40 40 W 3 6 30.09 1019 10 16 0.00 0.00
3:53 am 03:53 Clear 41 5 18 -7.8 39 39 Calm 30.10 1019 10 16 0.00 0.00
4:53 am 04:53 Clear 41 5 19 -7.2 41 41 Calm 30.09 1019 10 16 0.00 0.00
5:53 am 05:53 Clear 43 6.1 21 -6.1 42 42 Calm 30.09 1019 10 16 0.00 0.00
6:53 am 06:53 Clear 41 5 21 -6.1 45 45 SSE 3 6 30.11 1020 10 16 0.00 0.00
7:53 am 07:53 Clear 40 4.4 21 -6.1 47 47 S 5 7 30.14 1021 10 16 0.00 0.00
8:53 am 08:53 Sunny 46 7.8 22 -5.6 38 38 Calm 30.16 1021 10 16 0.00 0.00
9:53 am 09:53 Sunny 55 12.8 22 -5.6 28 28 S 10 17 30.17 1022 10 16 0.00 0.00
10:53 am 10:53 Sunny 61 16.1 23 -5 23 23 SSW 17 28 30.17 1022 10 16 0.00 0.00
11:53 am 11:53 Sunny 64 17.8 24 -4.4 22 22 S 18 30 30.16 1021 10 16 0.00 0.00
12:53 pm 12:53 Sunny 66 18.9 24 -4.4 20 20 S 14 22 30.15 1021 10 16 0.00 0.00
1:53 pm 13:53 Sunny 70 21.1 23 -5 17 17 S 16 26 30.12 1020 10 16 0.00 0.00
2:53 pm 14:53 Sunny 72 22.2 19 -7.2 13 13 S 13 20 30.08 1019 10 16 0.00 0.00
3:53 pm 15:53 Sunny 72 22.2 18 -7.8 13 13 S 6 9 30.04 1017 10 16 0.00 0.00
4:53 pm 16:53 Sunny 74 23.3 15 -9.4 10 10 S 13 20 30.02 1017 10 16 0.00 0.00
5:53 pm 17:53 Sunny 73 22.8 17 -8.3 12 12 S 14 22 30.01 1016 10 16 0.00 0.00
6:53 pm 18:53 Sunny 73 22.8 16 -8.9 11 11 SSE 10 17 30.01 1016 10 16 0.00 0.00
7:53 pm 19:53 Sunny 69 20.6 15 -9.4 12 12 SSE 9 15 30.01 1016 10 16 0.00 0.00
8:53 pm 20:53 Clear 63 17.2 14 -10 15 15 SSE 7 11 30.03 1017 10 16 0.00 0.00
9:53 pm 21:53 Clear 64 17.8 18 -7.8 17 17 SSE 10 17 30.03 1017 10 16 0.00 0.00
10:53 pm 22:53 Clear 62 16.7 22 -5.6 21 21 S 13 20 30.03 1017 10 16 0.00 0.00
11:53 pm 23:53 Clear 61 16.1 23 -5 23 23 S 13 20 30.04 1017 10 16 0.00 0.00

Powered by AerisWeather